Flag for U.S.A. Weather past 2 weeks in Sheboygan, Wisconsin, U.S.A.

Now
26 °F

Overcast.


Feels Like: 21 °F
Forecast: 23 / 29 °F
Wind: 5 mph from Northeast

Location: Sheboygan County Memorial Airport

Current Time: Jan 27, 2015 at 5:25:12 PM

Latest Report: Jan 27, 2015 at 4:53 PM


Visibility: 10 mi

Pressure: 30.27 "Hg

Humidity: 71%

Dew point: 18 °F

Location of SheboyganLocation

Historic Weather in Sheboygan — Graph

°F

Sheboygan temperature yesterday

Maximum temperature yesterday: 27 °F (at 11:53 AM)
Minimum temperature yesterday: 11 °F (at 3:53 AM)
Average temperature yesterday: 21 °F

Past Weeks' High & Low Weather Summary

 TemperatureHumidityPressure
High41 °F (Jan 17, 12:53 PM)96% (Jan 19, 10:53 PM)30.80 "Hg (Jan 19, 10:53 PM)
Low3 °F (Jan 14, 1:53 AM)53% (Jan 12, 3:53 PM)29.48 "Hg (Jan 17, 3:53 PM)
Average25 °F76%30.06 "Hg
* Reported Jan 12 3:53 PM — Jan 27 3:53 PM, Sheboygan, Weather by CustomWeather, © 2014

Note: Actual official high and low records may vary slightly from our data, if they occured in-between our weather recording intervals... More about our weather records

Advertising

Sheboygan weather history for previous 24 hours

 ConditionsComfort  
Time TempWeatherWind HumidityBarometerVisibility
3:53 PM
Jan 27
27 °FOvercast.5 mph69%30.26 "Hg10 mi
2:53 PM27 °FOvercast.5 mph69%30.25 "Hg10 mi
1:53 PM27 °FOvercast.8 mph75%30.24 "Hg10 mi
12:53 PM27 °FOvercast.7 mph72%30.23 "Hg10 mi
11:53 AM27 °FOvercast.3 mph66%30.23 "Hg10 mi
10:53 AM27 °FOvercast.8 mph66%30.23 "Hg10 mi
9:53 AM27 °FPartly sunny.9 mph66%30.21 "Hg10 mi
8:53 AM26 °FSunny.13 mph63%30.18 "Hg10 mi
7:53 AM25 °FOvercast.7 mph66%30.16 "Hg10 mi
6:53 AM25 °FOvercast.8 mph72%30.14 "Hg10 mi
5:53 AM25 °FMostly cloudy.6 mph75%30.11 "Hg10 mi
4:53 AM25 °FOvercast.6 mph78%30.09 "Hg10 mi
3:53 AM25 °FOvercast.7 mph78%30.06 "Hg10 mi
2:53 AM25 °FOvercast.7 mph81%30.04 "Hg10 mi
1:53 AM26 °FOvercast.5 mph77%30.01 "Hg10 mi
12:53 AM26 °FOvercast.8 mph74%29.99 "Hg10 mi
11:53 PM
Jan 26
26 °FOvercast.5 mph84%29.97 "Hg10 mi
10:53 PM26 °FLight snow. Ice fog.6 mph84%29.96 "Hg4 mi
9:53 PM26 °FMostly cloudy.3 mph84%29.95 "Hg10 mi
8:53 PM26 °FLight snow. Overcast.No wind84%29.95 "Hg7 mi
7:53 PM26 °FLight snow. Overcast.6 mph81%29.93 "Hg7 mi
6:53 PM26 °FOvercast.6 mph77%29.92 "Hg10 mi
5:53 PM26 °FOvercast.6 mph77%29.92 "Hg10 mi
Weather by CustomWeather, © 2014

See weather overviewHow to use our weather pages